Tracking 27172 objects as of 2-Apr-2023
HD Live streaming from Space Station
objects crossing your sky now

SL-16 DEB

Track SL-16 DEB now!
10-day predictions


NORAD ID: 22665
Int'l Code: 1992-093JA
Perigee: 831.9 km
Apogee: 929.9 km
Inclination: 71.1 °
Period: 102.4 minutes
Semi major axis: 7251 km
RCS: 0.0118 m2 (small)
Launch date: December 25, 1992
Source: Commonwealth of Independent States (former USSR) (CIS)
Launch site: TYURATAM MISSILE AND SPACE COMPLEX (TTMTR)

Note: This is SATELLITE DEBRIS
Your satellite tracking list
Your tracking list is empty




NASA's NSSDC Master Catalog

Two Line Element Set (TLE):
1 22665U 92093JA  23090.88432177  .00001168  00000-0  72732-3 0  9998
2 22665  71.0770 253.7023 0067569  87.6429  70.4810 14.05806294536829
Source of the keplerian elements: AFSPC